STARLINK-34369, 64297

Orbit data source: Space-Track

STARLINK-34369, 64297 is a payload satellite owned by SpaceX/Seattle (US) in LEO that was launched on Sun, 08 Jun 2025 UTC via an FALCON 9 launch vehicle from the Air Force Western Test Range (AFWTR). Payload-class satellites include a variety of spacecraft equipped with specific instruments for various scientific and technological missions. These include communications satellites like Starlink; space stations such as the ISS; scientific satellites like the Hubble; Earth observation satellites from companies like Planet Labs, Umbra, and HawkEye 360; GPS; miniature CubeSats for education and research; and military/defense satellites.

Loading next visibility...
Identifier
64297, 2025-123G
Orbit
LEO
Country
Flag of USUS
Related business
Manufacturer
SpaceX/Seattle
Mission
Operational Commercial Communications
Bus & Motor
STARLINK V2MO, Unknown motor
Mass
575 kg wet, ~530 kg dry
Launch date (UTC)
2025-06-08 (10 months ago)
Launch vehicle
FALCON 9
Launch site
Air Force Western Test Range (AFWTR)
Object type
Payload
Rocket body
Debris
Shape & HBR
Box + 2 Pan, 17.7 m
Radar Cross Section
36.964 m², Large (>1 m²)

Expand to show TLE details & history
Last TLE update: 18 hours ago

TLE from 18 hours ago
0 STARLINK-34369
1 64297U 25123G   26093.50174564 -.00058592  00000-0 -49565-2 0  9995
2 64297  69.9999 131.9551 0003833 274.8107  85.2614 14.98228352 45337
Epoch: 2026-04-03T12:02Z
TLE epoch observation values (Epoch: 2026-04-03T12:02:30.823Z)
Latitude
-0.00004°
Longitude
119.4917°
Altitude
574.575 km
Speed
7.574 km/s
True Right ascension
08h 47m 49s
True Declination
0° 00' 00"
Sunlit
Object was in full shadow at epoch
Visualization orbit readout
Latitude
Unknown
Longitude
Unknown
Altitude
Unknown
Speed
Unknown
Apparent Right ascension
Unknown
Apparent Declination
Unknown
Sunlit
N/A
Visualization observer readout
Local Sidereal Time
11:25:01
Azimuth
Unknown
Elevation
Unknown
Doppler factor
Unknown
Orbital elements
Apogee altitude
572.982 km
Perigee altitude
567.655 km
Semi-major axis
6,948.456 km
Eccentricity
0.00038
Inclination
69.9999°
RAAN
131.9551°
Arg. of periapsis
274.8107°
True anomaly
85.30517°
Mean anomaly
85.2614°
Eccentric anomaly
85.28329°
Mean motion
3.74723 °/min
Orbital period
96.07 mins
BSTAR
-0.0049565
Loading maneuver chart data...
Computing Atmospheric mass density...
Loading historical data...
Loading historical data...
Loading historical data...
Loading historical data...
Loading historical data...
Loading historical data...
Loading historical data...

Documentation

Showing up to 5 results
|